Location: Newark
(35.6799°N, 139.7636°E)
Time: 21:52:08
(UTC+00:00)

Transit 2A - Pass Details

Date: 13 December 2019
Orbit: 601 x 958 km, 66.7° (Epoch: 28 January)

Event Time Altitude Azimuth Distance (km) Brightness Sun altitude
Rises 21:51:42 0° 250° (WSW) 3,071 8.7 0.9°
Reaches altitude 10° 21:55:06 10° 274° (W) 2,087 7.7 1.5°
Maximum altitude 21:57:43 15° 309° (NW) 1,753 7.3 1.9°
Drops below altitude 10° 22:00:14 10° 343° (NNW) 2,008 7.8 2.4°
Sets 22:03:25 0° 8° (N) 2,881 8.7 2.9°
